User: anonymous   Login
Location: Unspecified
(0.0000°N, 0.0000°E)
Time: 21:04:46
(UTC+00:00)
Language:

STARLINK-2624 - Orbit

View from above orbital plane
View from above orbital plane
View from above satellite
View from above satellite

Ground track
Ground track

The orbit is defined by the following mean orbital elements,

1 48358U          26145.59069191 +.00000000 +00000-0 +53051-4 0 00007
2 48358  53.1608   0.4593 0001208  81.2149 278.8990 15.31691596    09
Epoch (UTC): 25 May 2026 14:10:35
Eccentricity: 0.0001208
inclination: 53.1608°
perigee height: 470 km
apogee height: 472 km
right ascension of ascending node: 0.4593°
argument of perigee: 81.2149°
revolutions per day: 15.31691596
mean anomaly at epoch: 278.8990°

The dashed part of the orbit path shows where the satellite is in the earth's shadow,  

DLR